| time (UTC) | temp C | wind direction | speed KPH | gust KPH | rain 1hr cm | rain 24hr cm | rain mn cm | humidity % | barometer mb |
| 20260510083346 | 18 | 185 | 9.7 | 12.9 | 0.00 | 0.00 | 0.00 | 83 | 1017.4 |
| 20260510082841 | 18 | 193 | 6.4 | 14.5 | 0.00 | 0.00 | 0.00 | 83 | 1017.9 |
| 20260510082339 | 17 | 181 | 9.7 | 19.3 | 0.00 | 0.00 | 0.00 | 83 | 1017.9 |
| 20260510081837 | 17 | 200 | 6.4 | 19.3 | 0.00 | 0.00 | 0.00 | 83 | 1018.0 |
| 20260510081334 | 17 | 201 | 11.3 | 14.5 | 0.00 | 0.00 | 0.00 | 84 | 1017.8 |
| 20260510080830 | 16 | 215 | 3.2 | 8.0 | 0.00 | 0.00 | 0.00 | 84 | 1017.9 |
| 20260510080325 | 15 | 194 | 3.2 | 4.8 | 0.00 | 0.00 | 0.00 | 87 | 1018.0 |
| 20260510075822 | 15 | 181 | 4.8 | 4.8 | 0.00 | 0.00 | 0.00 | 86 | 1017.9 |
| 20260510075320 | 15 | 140 | 1.6 | 3.2 | 0.00 | 0.00 | 0.00 | 86 | 1018.0 |
| 20260510074816 | 15 | 309 | 0.0 | 3.2 | 0.00 | 0.00 | 0.00 | 85 | 1018.1 |
| 20260510074314 | 15 | 282 | 1.6 | 4.8 | 0.00 | 0.00 | 0.00 | 85 | 1017.9 |
| 20260510073809 | 15 | 299 | 0.0 | 6.4 | 0.00 | 0.00 | 0.00 | 85 | 1017.9 |
| 20260510073305 | 15 | 195 | 4.8 | 9.7 | 0.00 | 0.00 | 0.00 | 85 | 1018.0 |
| 20260510072801 | 15 | 194 | 4.8 | 4.8 | 0.00 | 0.00 | 0.00 | 85 | 1018.0 |
| 20260510072258 | 15 | 201 | 3.2 | 4.8 | 0.00 | 0.00 | 0.00 | 85 | 1017.9 |
| 20260510071754 | 15 | 210 | 3.2 | 4.8 | 0.00 | 0.00 | 0.00 | 86 | 1017.7 |
| 20260510071251 | 15 | 183 | 3.2 | 4.8 | 0.00 | 0.00 | 0.00 | 86 | 1017.8 |
| 20260510070750 | 15 | 181 | 3.2 | 3.2 | 0.00 | 0.00 | 0.00 | 86 | 1018.0 |
| 20260510070247 | 16 | 189 | 1.6 | 4.8 | 0.00 | 0.00 | 0.00 | 84 | 1018.1 |
| 20260510065746 | 16 | 216 | 3.2 | 3.2 | 0.00 | 0.00 | 0.00 | 84 | 1018.1 |
| 20260510065243 | 15 | 217 | 0.0 | 1.6 | 0.00 | 0.00 | 0.00 | 85 | 1018.1 |
| 20260510064740 | 15 | 142 | 0.0 | 1.6 | 0.00 | 0.00 | 0.00 | 86 | 1018.2 |
| 20260510064238 | 15 | 89 | 0.0 | 3.2 | 0.00 | 0.00 | 0.00 | 85 | 1018.6 |
| 20260510063734 | 15 | 143 | 0.0 | 3.2 | 0.00 | 0.00 | 0.00 | 85 | 1018.4 |
| 20260510063230 | 15 | 121 | 1.6 | 3.2 | 0.00 | 0.00 | 0.00 | 86 | 1018.7 |
| 20260510062727 | 15 | 124 | 1.6 | 3.2 | 0.00 | 0.00 | 0.00 | 86 | 1018.5 |
| 20260510062223 | 15 | 145 | 3.2 | 4.8 | 0.00 | 0.00 | 0.00 | 86 | 1018.8 |
| 20260510061718 | 15 | 186 | 3.2 | 6.4 | 0.00 | 0.00 | 0.00 | 87 | 1018.6 |
| 20260510061216 | 16 | 146 | 4.8 | 6.4 | 0.00 | 0.00 | 0.00 | 86 | 1018.7 |
| 20260510060712 | 16 | 149 | 1.6 | 4.8 | 0.00 | 0.00 | 0.00 | 85 | 1018.8 |
| 20260510060209 | 16 | 50 | 0.0 | 3.2 | 0.00 | 0.00 | 0.00 | 84 | 1018.8 |
| 20260510055705 | 16 | 37 | 0.0 | 1.6 | 0.00 | 0.00 | 0.00 | 83 | 1018.6 |
| 20260510055203 | 16 | 29 | 0.0 | 1.6 | 0.00 | 0.00 | 0.00 | 85 | 1018.3 |
| 20260510054658 | 16 | 147 | 0.0 | 0.0 | 0.00 | 0.00 | 0.00 | 85 | 1018.3 |
| 20260510054154 | 15 | 322 | 0.0 | 1.6 | 0.00 | 0.00 | 0.00 | 85 | 1018.2 |
| 20260510053654 | 15 | 63 | 0.0 | 3.2 | 0.00 | 0.00 | 0.00 | 87 | 1018.4 |
| 20260510053151 | 15 | 173 | 0.0 | 3.2 | 0.00 | 0.00 | 0.00 | 87 | 1018.1 |
| 20260510052646 | 15 | 144 | 1.6 | 3.2 | 0.00 | 0.00 | 0.00 | 86 | 1018.1 |
| 20260510052143 | 15 | 152 | 0.0 | 4.8 | 0.00 | 0.00 | 0.00 | 86 | 1017.9 |
| 20260510051638 | 15 | 3 | 3.2 | 3.2 | 0.00 | 0.00 | 0.00 | 83 | 1018.1 |
| 20260510051135 | 15 | 50 | 0.0 | 3.2 | 0.00 | 0.00 | 0.00 | 84 | 1018.0 |
| 20260510050632 | 15 | 63 | 0.0 | 3.2 | 0.00 | 0.00 | 0.00 | 82 | 1018.1 |
| 20260510050130 | 15 | 37 | 0.0 | 3.2 | 0.00 | 0.00 | 0.00 | 82 | 1018.0 |
| 20260510045626 | 15 | 343 | 1.6 | 3.2 | 0.00 | 0.00 | 0.00 | 82 | 1018.2 |
| 20260510045123 | 15 | 355 | 0.0 | 3.2 | 0.00 | 0.00 | 0.00 | 84 | 1018.2 |
| 20260510044619 | 15 | 337 | 0.0 | 3.2 | 0.00 | 0.00 | 0.00 | 84 | 1018.0 |
| 20260510044117 | 15 | 22 | 1.6 | 3.2 | 0.00 | 0.00 | 0.00 | 84 | 1017.9 |
| 20260510043612 | 15 | 58 | 0.0 | 1.6 | 0.00 | 0.00 | 0.00 | 84 | 1017.8 |
| 20260510043109 | 15 | 350 | 0.0 | 4.8 | 0.00 | 0.00 | 0.00 | 83 | 1017.8 |
| 20260510042607 | 15 | 342 | 0.0 | 1.6 | 0.00 | 0.00 | 0.00 | 82 | 1017.8 |
| 20260510042102 | 15 | 19 | 0.0 | 3.2 | 0.00 | 0.00 | 0.00 | 82 | 1017.5 |
| 20260510041600 | 16 | 140 | 1.6 | 3.2 | 0.00 | 0.00 | 0.00 | 81 | 1017.9 |
| 20260510041057 | 16 | 181 | 3.2 | 4.8 | 0.00 | 0.00 | 0.00 | 81 | 1017.9 |
| 20260510040554 | 16 | 144 | 3.2 | 4.8 | 0.00 | 0.00 | 0.00 | 80 | 1017.8 |
| 20260510040049 | 16 | 150 | 4.8 | 4.8 | 0.00 | 0.00 | 0.00 | 81 | 1017.7 |
| 20260510035546 | 16 | 181 | 1.6 | 4.8 | 0.00 | 0.00 | 0.00 | 79 | 1017.7 |
| 20260510035045 | 17 | 174 | 3.2 | 4.8 | 0.00 | 0.00 | 0.00 | 73 | 1017.7 |
| 20260510034544 | 18 | 316 | 0.0 | 1.6 | 0.00 | 0.00 | 0.00 | 69 | 1017.6 |
| 20260510034041 | 18 | 37 | 0.0 | 3.2 | 0.00 | 0.00 | 0.00 | 65 | 1017.3 |
| 20260510033536 | 18 | 296 | 0.0 | 3.2 | 0.00 | 0.00 | 0.00 | 66 | 1017.5 |
| 20260510033035 | 18 | 18 | 3.2 | 3.2 | 0.00 | 0.00 | 0.00 | 68 | 1017.1 |
| 20260510032531 | 18 | 37 | 0.0 | 4.8 | 0.00 | 0.00 | 0.00 | 68 | 1017.1 |
| 20260510032026 | 18 | 8 | 1.6 | 4.8 | 0.00 | 0.00 | 0.00 | 70 | 1016.8 |
| 20260510031522 | 18 | 214 | 0.0 | 3.2 | 0.00 | 0.00 | 0.00 | 69 | 1016.7 |
| 20260510031018 | 18 | 352 | 0.0 | 3.2 | 0.00 | 0.00 | 0.00 | 69 | 1016.6 |
| 20260510030513 | 18 | 357 | 3.2 | 3.2 | 0.00 | 0.00 | 0.00 | 70 | 1016.7 |
| 20260510030011 | 18 | 293 | 0.0 | 3.2 | 0.00 | 0.00 | 0.00 | 69 | 1016.6 |
| 20260510025508 | 18 | 5 | 0.0 | 3.2 | 0.00 | 0.00 | 0.00 | 68 | 1016.5 |
| 20260510025006 | 18 | 309 | 0.0 | 1.6 | 0.00 | 0.00 | 0.00 | 69 | 1016.4 |
| 20260510024502 | 18 | 306 | 0.0 | 0.0 | 0.00 | 0.00 | 0.00 | 68 | 1016.6 |
| 20260510023958 | 18 | 339 | 1.6 | 4.8 | 0.00 | 0.00 | 0.00 | 69 | 1016.5 |
| 20260510023454 | 18 | 322 | 0.0 | 1.6 | 0.00 | 0.00 | 0.00 | 66 | 1016.6 |
| 20260510022951 | 19 | 342 | 1.6 | 3.2 | 0.00 | 0.00 | 0.00 | 64 | 1016.3 |
| 20260510022450 | 19 | 348 | 1.6 | 3.2 | 0.00 | 0.00 | 0.00 | 63 | 1016.2 |
| 20260510021949 | 19 | 315 | 1.6 | 3.2 | 0.00 | 0.00 | 0.00 | 64 | 1015.9 |
| 20260510021448 | 18 | 315 | 1.6 | 3.2 | 0.00 | 0.00 | 0.00 | 65 | 1015.8 |
| 20260510020945 | 18 | 331 | 1.6 | 3.2 | 0.00 | 0.00 | 0.00 | 67 | 1015.9 |
| 20260510020444 | 18 | 348 | 1.6 | 3.2 | 0.00 | 0.00 | 0.00 | 66 | 1015.6 |
| 20260510015940 | 19 | 322 | 1.6 | 3.2 | 0.00 | 0.00 | 0.00 | 66 | 1015.7 |
| 20260510015436 | 19 | 212 | 0.0 | 1.6 | 0.00 | 0.00 | 0.00 | 66 | 1015.5 |
| 20260510014931 | 20 | 195 | 3.2 | 3.2 | 0.00 | 0.00 | 0.00 | 64 | 1015.6 |
| 20260510014429 | 20 | 193 | 0.0 | 3.2 | 0.00 | 0.00 | 0.00 | 63 | 1015.4 |
| 20260510013926 | 20 | 180 | 0.0 | 1.6 | 0.00 | 0.00 | 0.00 | 61 | 1015.4 |
| 20260510013420 | 20 | 227 | 1.6 | 3.2 | 0.00 | 0.00 | 0.00 | 60 | 1015.5 |
| 20260510012916 | 20 | 210 | 1.6 | 3.2 | 0.00 | 0.00 | 0.00 | 59 | 1015.2 |
| 20260510012411 | 20 | 178 | 3.2 | 4.8 | 0.00 | 0.00 | 0.00 | 62 | 1015.1 |
| 20260510011906 | 21 | 204 | 0.0 | 3.2 | 0.00 | 0.00 | 0.00 | 64 | 1015.0 |
| 20260510011401 | 21 | 200 | 0.0 | 1.6 | 0.00 | 0.00 | 0.00 | 58 | 1015.1 |
| 20260510010858 | 21 | 94 | 3.2 | 3.2 | 0.00 | 0.00 | 0.00 | 53 | 1014.9 |
| 20260510010355 | 21 | 114 | 1.6 | 8.0 | 0.00 | 0.00 | 0.00 | 60 | 1015.1 |
| 20260510005852 | 23 | 139 | 3.2 | 8.0 | 0.00 | 0.00 | 0.00 | 49 | 1014.8 |
| 20260510005348 | 23 | 131 | 4.8 | 6.4 | 0.00 | 0.00 | 0.00 | 47 | 1015.0 |
| 20260510004846 | 23 | 138 | 1.6 | 4.8 | 0.00 | 0.00 | 0.00 | 49 | 1014.7 |
| 20260510004343 | 24 | 95 | 3.2 | 4.8 | 0.00 | 0.00 | 0.00 | 41 | 1014.7 |
| 20260510003841 | 25 | 83 | 1.6 | 4.8 | 0.00 | 0.00 | 0.00 | 43 | 1014.6 |
| 20260510003338 | 25 | 86 | 4.8 | 6.4 | 0.00 | 0.00 | 0.00 | 40 | 1014.6 |
| 20260510002836 | 25 | 77 | 3.2 | 4.8 | 0.00 | 0.00 | 0.00 | 42 | 1014.7 |
| 20260510002334 | 25 | 72 | 4.8 | 4.8 | 0.00 | 0.00 | 0.00 | 42 | 1014.5 |
| 20260510001830 | 25 | 81 | 3.2 | 6.4 | 0.00 | 0.00 | 0.00 | 40 | 1014.6 |
| 20260510001328 | 25 | 66 | 4.8 | 8.0 | 0.00 | 0.00 | 0.00 | 39 | 1014.6 |
| 20260510000824 | 25 | 78 | 4.8 | 8.0 | 0.00 | 0.00 | 0.00 | 38 | 1014.6 |
| 20260510000322 | 26 | 83 | 4.8 | 8.0 | 0.00 | 0.00 | 0.00 | 37 | 1014.7 |
| 20260509235819 | 26 | 81 | 6.4 | 6.4 | 0.00 | 0.00 | 0.00 | 36 | 1014.5 |
| 20260509235315 | 26 | 68 | 3.2 | 8.0 | 0.00 | 0.00 | 0.00 | 38 | 1014.9 |
| 20260509234811 | 26 | 84 | 4.8 | 8.0 | 0.00 | 0.00 | 0.00 | 36 | 1014.3 |
| 20260509234308 | 26 | 63 | 6.4 | 8.0 | 0.00 | 0.00 | 0.00 | 35 | 1014.7 |
| 20260509233806 | 26 | 65 | 6.4 | 8.0 | 0.00 | 0.00 | 0.00 | 36 | 1014.7 |
| 20260509233303 | 26 | 351 | 3.2 | 4.8 | 0.00 | 0.00 | 0.00 | 34 | 1014.5 |
| 20260509232759 | 26 | 86 | 3.2 | 4.8 | 0.00 | 0.00 | 0.00 | 30 | 1014.8 |
| 20260509232257 | 27 | 22 | 0.0 | 6.4 | 0.00 | 0.00 | 0.00 | 31 | 1015.1 |
| 20260509231753 | 27 | 354 | 1.6 | 4.8 | 0.00 | 0.00 | 0.00 | 29 | 1014.9 |
| 20260509231250 | 27 | 72 | 1.6 | 6.4 | 0.00 | 0.00 | 0.00 | 30 | 1014.8 |
| 20260509230748 | 27 | 51 | 1.6 | 3.2 | 0.00 | 0.00 | 0.00 | 33 | 1014.8 |
| 20260509230244 | 27 | 41 | 4.8 | 11.3 | 0.00 | 0.00 | 0.00 | 35 | 1014.9 |
| 20260509225739 | 27 | 20 | 3.2 | 6.4 | 0.00 | 0.00 | 0.00 | 33 | 1014.7 |
| 20260509225236 | 27 | 326 | 3.2 | 4.8 | 0.00 | 0.00 | 0.00 | 35 | 1014.8 |
| 20260509224731 | 27 | 306 | 4.8 | 4.8 | 0.00 | 0.00 | 0.00 | 28 | 1014.7 |
| 20260509224229 | 27 | 80 | 1.6 | 6.4 | 0.00 | 0.00 | 0.00 | 33 | 1015.0 |
| 20260509223725 | 27 | 92 | 3.2 | 8.0 | 0.00 | 0.00 | 0.00 | 32 | 1014.6 |
| 20260509223223 | 27 | 74 | 6.4 | 8.0 | 0.00 | 0.00 | 0.00 | 30 | 1015.1 |
| 20260509222719 | 27 | 341 | 0.0 | 4.8 | 0.00 | 0.00 | 0.00 | 32 | 1015.1 |
| 20260509222215 | 27 | 81 | 6.4 | 27.4 | 0.00 | 0.00 | 0.00 | 34 | 1015.1 |
| 20260509221711 | 27 | 112 | 4.8 | 6.4 | 0.00 | 0.00 | 0.00 | 29 | 1015.0 |
| 20260509221207 | 27 | 339 | 6.4 | 8.0 | 0.00 | 0.00 | 0.00 | 30 | 1015.1 |
| 20260509220703 | 28 | 325 | 3.2 | 4.8 | 0.00 | 0.00 | 0.00 | 34 | 1014.9 |
| 20260509220200 | 27 | 57 | 1.6 | 9.7 | 0.00 | 0.00 | 0.00 | 30 | 1014.8 |
| 20260509215655 | 26 | 37 | 4.8 | 9.7 | 0.00 | 0.00 | 0.00 | 36 | 1014.8 |
| 20260509215152 | 27 | 75 | 11.3 | 14.5 | 0.00 | 0.00 | 0.00 | 32 | 1014.9 |
| 20260509214649 | 27 | 200 | 6.4 | 11.3 | 0.00 | 0.00 | 0.00 | 32 | 1015.0 |
| 20260509214146 | 27 | 53 | 1.6 | 9.7 | 0.00 | 0.00 | 0.00 | 34 | 1014.9 |
| 20260509213643 | 27 | 83 | 6.4 | 12.9 | 0.00 | 0.00 | 0.00 | 32 | 1015.0 |
| 20260509213138 | 27 | 55 | 6.4 | 14.5 | 0.00 | 0.00 | 0.00 | 33 | 1015.1 |
| 20260509212636 | 27 | 184 | 9.7 | 12.9 | 0.00 | 0.00 | 0.00 | 29 | 1015.0 |
| 20260509212133 | 27 | 147 | 6.4 | 17.7 | 0.00 | 0.00 | 0.00 | 31 | 1015.2 |
| 20260509211629 | 27 | 155 | 4.8 | 8.0 | 0.00 | 0.00 | 0.00 | 29 | 1015.1 |
| 20260509211126 | 26 | 58 | 3.2 | 8.0 | 0.00 | 0.00 | 0.00 | 29 | 1015.3 |
| 20260509210623 | 26 | 85 | 4.8 | 12.9 | 0.00 | 0.00 | 0.00 | 33 | 1015.2 |
| 20260509210120 | 27 | 120 | 1.6 | 6.4 | 0.00 | 0.00 | 0.00 | 29 | 1015.1 |
| 20260509205614 | 27 | 3 | 3.2 | 8.0 | 0.00 | 0.00 | 0.00 | 30 | 1015.3 |
| 20260509205109 | 27 | 54 | 6.4 | 8.0 | 0.00 | 0.00 | 0.00 | 30 | 1015.4 |
| 20260509204605 | 27 | 67 | 8.0 | 11.3 | 0.00 | 0.00 | 0.00 | 27 | 1015.4 |
| 20260509204102 | 27 | 334 | 3.2 | 6.4 | 0.00 | 0.00 | 0.00 | 30 | 1015.6 |
| 20260509203558 | 27 | 359 | 0.0 | 3.2 | 0.00 | 0.00 | 0.00 | 29 | 1015.6 |
| 20260509203057 | 27 | 342 | 3.2 | 11.3 | 0.00 | 0.00 | 0.00 | 32 | 1015.6 |
| 20260509202556 | 26 | 59 | 16.1 | 17.7 | 0.00 | 0.00 | 0.00 | 32 | 1015.6 |
| 20260509202052 | 27 | 81 | 9.7 | 17.7 | 0.00 | 0.00 | 0.00 | 30 | 1015.8 |
| 20260509201547 | 27 | 75 | 9.7 | 11.3 | 0.00 | 0.00 | 0.00 | 35 | 1015.4 |
| 20260509201046 | 26 | 132 | 6.4 | 12.9 | 0.00 | 0.00 | 0.00 | 29 | 1015.7 |
| 20260509200544 | 26 | 79 | 14.5 | 16.1 | 0.00 | 0.00 | 0.00 | 36 | 1015.9 |
| 20260509200042 | 26 | 76 | 9.7 | 14.5 | 0.00 | 0.00 | 0.00 | 30 | 1015.8 |
| 20260509195537 | 26 | 80 | 6.4 | 14.5 | 0.00 | 0.00 | 0.00 | 28 | 1016.0 |
| 20260509195037 | 26 | 51 | 3.2 | 11.3 | 0.00 | 0.00 | 0.00 | 36 | 1016.0 |
| 20260509194532 | 27 | 66 | 8.0 | 14.5 | 0.00 | 0.00 | 0.00 | 30 | 1016.0 |
| 20260509194030 | 26 | 71 | 6.4 | 11.3 | 0.00 | 0.00 | 0.00 | 28 | 1016.0 |
| 20260509193530 | 26 | 79 | 3.2 | 12.9 | 0.00 | 0.00 | 0.00 | 34 | 1015.9 |
| 20260509193027 | 26 | 130 | 11.3 | 17.7 | 0.00 | 0.00 | 0.00 | 28 | 1015.9 |
| 20260509192524 | 26 | 71 | 8.0 | 17.7 | 0.00 | 0.00 | 0.00 | 28 | 1016.0 |
| 20260509192019 | 26 | 146 | 4.8 | 9.7 | 0.00 | 0.00 | 0.00 | 27 | 1016.1 |
| 20260509191514 | 26 | 132 | 9.7 | 14.5 | 0.00 | 0.00 | 0.00 | 28 | 1016.0 |
| 20260509191009 | 27 | 93 | 4.8 | 8.0 | 0.00 | 0.00 | 0.00 | 31 | 1015.9 |
| 20260509190507 | 27 | 42 | 6.4 | 11.3 | 0.00 | 0.00 | 0.00 | 29 | 1016.0 |
| 20260509190005 | 26 | 322 | 4.8 | 9.7 | 0.00 | 0.00 | 0.00 | 30 | 1016.0 |
| 20260509185501 | 27 | 51 | 9.7 | 9.7 | 0.00 | 0.00 | 0.00 | 30 | 1016.1 |
| 20260509184958 | 26 | 185 | 4.8 | 11.3 | 0.00 | 0.00 | 0.00 | 30 | 1016.1 |
| 20260509184457 | 26 | 89 | 6.4 | 14.5 | 0.00 | 0.00 | 0.00 | 31 | 1016.3 |
| 20260509183952 | 26 | 29 | 6.4 | 11.3 | 0.00 | 0.00 | 0.00 | 27 | 1016.2 |
| 20260509183447 | 26 | 118 | 8.0 | 11.3 | 0.00 | 0.00 | 0.00 | 28 | 1016.1 |
| 20260509182943 | 27 | 5 | 3.2 | 8.0 | 0.00 | 0.00 | 0.00 | 34 | 1016.1 |
| 20260509182439 | 26 | 113 | 0.0 | 3.2 | 0.00 | 0.00 | 0.00 | 29 | 1016.3 |
| 20260509181937 | 26 | 15 | 4.8 | 9.7 | 0.00 | 0.00 | 0.00 | 39 | 1016.3 |
| 20260509181435 | 26 | 13 | 4.8 | 9.7 | 0.00 | 0.00 | 0.00 | 39 | 1016.4 |
| 20260509180932 | 26 | 105 | 1.6 | 4.8 | 0.00 | 0.00 | 0.00 | 39 | 1016.3 |
| 20260509180427 | 26 | 178 | 6.4 | 11.3 | 0.00 | 0.00 | 0.00 | 38 | 1016.3 |
| 20260509175925 | 26 | 27 | 4.8 | 8.0 | 0.00 | 0.00 | 0.00 | 40 | 1016.3 |
| 20260509175421 | 26 | 252 | 3.2 | 8.0 | 0.00 | 0.00 | 0.00 | 41 | 1016.2 |
| 20260509174917 | 25 | 348 | 3.2 | 6.4 | 0.00 | 0.00 | 0.00 | 44 | 1016.4 |
| 20260509174413 | 25 | 114 | 4.8 | 11.3 | 0.00 | 0.00 | 0.00 | 48 | 1016.5 |
| 20260509173910 | 25 | 140 | 4.8 | 9.7 | 0.00 | 0.00 | 0.00 | 48 | 1016.4 |
| 20260509173409 | 25 | 102 | 6.4 | 11.3 | 0.00 | 0.00 | 0.00 | 48 | 1016.7 |
| 20260509172906 | 25 | 187 | 6.4 | 8.0 | 0.00 | 0.00 | 0.00 | 48 | 1016.5 |
| 20260509172403 | 25 | 178 | 4.8 | 12.9 | 0.00 | 0.00 | 0.00 | 48 | 1016.5 |
| 20260509171859 | 26 | 300 | 1.6 | 4.8 | 0.00 | 0.00 | 0.00 | 53 | 1016.6 |
| 20260509171355 | 25 | 320 | 3.2 | 6.4 | 0.00 | 0.00 | 0.00 | 55 | 1016.5 |
| 20260509170851 | 24 | 183 | 3.2 | 12.9 | 0.00 | 0.00 | 0.00 | 56 | 1016.6 |
| 20260509170347 | 25 | 165 | 3.2 | 6.4 | 0.00 | 0.00 | 0.00 | 52 | 1016.7 |
| 20260509165841 | 25 | 193 | 0.0 | 6.4 | 0.00 | 0.00 | 0.00 | 52 | 1016.6 |
| 20260509165336 | 24 | 219 | 0.0 | 6.4 | 0.00 | 0.00 | 0.00 | 53 | 1016.7 |
| 20260509164833 | 25 | 201 | 4.8 | 6.4 | 0.00 | 0.00 | 0.00 | 52 | 1016.8 |
| 20260509164329 | 24 | 72 | 4.8 | 8.0 | 0.00 | 0.00 | 0.00 | 57 | 1016.8 |
| 20260509163825 | 24 | 50 | 4.8 | 8.0 | 0.00 | 0.00 | 0.00 | 54 | 1016.9 |
| 20260509163322 | 24 | 0 | 4.8 | 4.8 | 0.00 | 0.00 | 0.00 | 56 | 1016.7 |
| 20260509162822 | 24 | 358 | 3.2 | 6.4 | 0.00 | 0.00 | 0.00 | 60 | 1016.8 |
| 20260509162320 | 23 | 351 | 3.2 | 4.8 | 0.00 | 0.00 | 0.00 | 60 | 1016.8 |
| 20260509161817 | 23 | 191 | 3.2 | 6.4 | 0.00 | 0.00 | 0.00 | 63 | 1017.0 |
| 20260509161313 | 23 | 250 | 4.8 | 8.0 | 0.00 | 0.00 | 0.00 | 67 | 1017.0 |
| 20260509160808 | 23 | 338 | 3.2 | 6.4 | 0.00 | 0.00 | 0.00 | 69 | 1016.9 |
| 20260509160305 | 23 | 236 | 3.2 | 8.0 | 0.00 | 0.00 | 0.00 | 67 | 1016.9 |
| 20260509155800 | 23 | 325 | 3.2 | 8.0 | 0.00 | 0.00 | 0.00 | 68 | 1016.9 |
| 20260509155257 | 23 | 249 | 8.0 | 8.0 | 0.00 | 0.00 | 0.00 | 68 | 1016.9 |
| 20260509154753 | 23 | 294 | 0.0 | 4.8 | 0.00 | 0.00 | 0.00 | 71 | 1017.1 |
| 20260509154250 | 23 | 35 | 3.2 | 4.8 | 0.00 | 0.00 | 0.00 | 72 | 1016.8 |
| 20260509153747 | 22 | 250 | 3.2 | 8.0 | 0.00 | 0.00 | 0.00 | 71 | 1017.0 |
| 20260509153243 | 22 | 221 | 4.8 | 11.3 | 0.00 | 0.00 | 0.00 | 72 | 1016.9 |
| 20260509152739 | 22 | 305 | 3.2 | 8.0 | 0.00 | 0.00 | 0.00 | 73 | 1016.9 |
| 20260509152236 | 22 | 274 | 3.2 | 6.4 | 0.00 | 0.00 | 0.00 | 75 | 1016.7 |
| 20260509151733 | 22 | 257 | 4.8 | 9.7 | 0.00 | 0.00 | 0.00 | 74 | 1016.8 |
| 20260509151229 | 22 | 222 | 4.8 | 8.0 | 0.00 | 0.00 | 0.00 | 77 | 1016.8 |
| 20260509150727 | 22 | 253 | 6.4 | 9.7 | 0.00 | 0.00 | 0.00 | 74 | 1016.8 |
| 20260509150225 | 22 | 357 | 1.6 | 8.0 | 0.00 | 0.00 | 0.00 | 75 | 1016.8 |
| 20260509145722 | 21 | 293 | 3.2 | 9.7 | 0.00 | 0.00 | 0.00 | 77 | 1017.0 |
| 20260509145217 | 21 | 272 | 3.2 | 11.3 | 0.00 | 0.00 | 0.00 | 80 | 1016.8 |
| 20260509144714 | 20 | 198 | 3.2 | 9.7 | 0.00 | 0.00 | 0.00 | 81 | 1016.9 |
| 20260509144211 | 20 | 166 | 4.8 | 8.0 | 0.00 | 0.00 | 0.00 | 82 | 1016.8 |
| 20260509143708 | 20 | 174 | 3.2 | 4.8 | 0.00 | 0.00 | 0.00 | 81 | 1017.0 |
| 20260509143205 | 20 | 141 | 4.8 | 8.0 | 0.00 | 0.00 | 0.00 | 82 | 1016.9 |
| 20260509142700 | 19 | 206 | 3.2 | 11.3 | 0.00 | 0.00 | 0.00 | 84 | 1016.6 |
| 20260509142157 | 20 | 186 | 4.8 | 8.0 | 0.00 | 0.00 | 0.00 | 82 | 1016.6 |
| 20260509141653 | 19 | 191 | 4.8 | 6.4 | 0.00 | 0.00 | 0.00 | 83 | 1016.7 |
| 20260509141150 | 19 | 175 | 6.4 | 8.0 | 0.00 | 0.00 | 0.00 | 83 | 1016.6 |
| 20260509140647 | 18 | 201 | 6.4 | 9.7 | 0.00 | 0.00 | 0.00 | 84 | 1016.7 |
| 20260509140145 | 18 | 175 | 3.2 | 4.8 | 0.00 | 0.00 | 0.00 | 83 | 1016.6 |
| 20260509135641 | 19 | 313 | 0.0 | 3.2 | 0.00 | 0.00 | 0.00 | 84 | 1016.6 |
| 20260509135140 | 18 | 186 | 0.0 | 4.8 | 0.00 | 0.00 | 0.00 | 83 | 1016.6 |
| 20260509134636 | 17 | 110 | 0.0 | 3.2 | 0.00 | 0.00 | 0.00 | 87 | 1016.6 |
| 20260509134134 | 17 | 160 | 0.0 | 3.2 | 0.00 | 0.00 | 0.00 | 89 | 1016.7 |
| 20260509133631 | 16 | 217 | 0.0 | 1.6 | 0.00 | 0.00 | 0.00 | 90 | 1016.4 |
| 20260509133128 | 15 | 223 | 1.6 | 3.2 | 0.00 | 0.00 | 0.00 | 91 | 1016.2 |
| 20260509132626 | 15 | 197 | 0.0 | 4.8 | 0.00 | 0.00 | 0.00 | 93 | 1016.5 |
| 20260509132124 | 15 | 193 | 3.2 | 4.8 | 0.00 | 0.00 | 0.00 | 93 | 1016.4 |
| 20260509131620 | 14 | 312 | 0.0 | 6.4 | 0.00 | 0.00 | 0.00 | 94 | 1016.5 |
| 20260509131117 | 14 | 155 | 4.8 | 4.8 | 0.00 | 0.00 | 0.00 | 95 | 1016.3 |
| 20260509130613 | 13 | 188 | 3.2 | 4.8 | 0.00 | 0.00 | 0.00 | 96 | 1016.4 |
| 20260509130109 | 13 | 146 | 1.6 | 4.8 | 0.00 | 0.00 | 0.00 | 97 | 1016.3 |
| 20260509125606 | 13 | 137 | 1.6 | 4.8 | 0.00 | 0.00 | 0.00 | 98 | 1016.1 |
| 20260509125102 | 12 | 161 | 1.6 | 4.8 | 0.00 | 0.00 | 0.00 | 99 | 1016.3 |
| 20260509124559 | 12 | 108 | 0.0 | 3.2 | 0.00 | 0.00 | 0.00 | 99 | 1016.2 |
| 20260509124056 | 12 | 197 | 1.6 | 4.8 | 0.00 | 0.00 | 0.00 | 99 | 1016.0 |
| 20260509123554 | 12 | 200 | 3.2 | 3.2 | 0.00 | 0.00 | 0.00 | 99 | 1016.1 |
| 20260509123051 | 11 | 205 | 1.6 | 3.2 | 0.00 | 0.00 | 0.00 | 99 | 1016.3 |
| 20260509122547 | 11 | 173 | 3.2 | 4.8 | 0.00 | 0.00 | 0.00 | 99 | 1016.0 |
| 20260509122044 | 11 | 116 | 3.2 | 4.8 | 0.00 | 0.00 | 0.00 | 99 | 1016.0 |
| 20260509121540 | 11 | 333 | 0.0 | 3.2 | 0.00 | 0.00 | 0.00 | 99 | 1016.0 |
| 20260509121038 | 11 | 211 | 0.0 | 3.2 | 0.00 | 0.00 | 0.00 | 99 | 1015.7 |
| 20260509120536 | 11 | 186 | 0.0 | 3.2 | 0.00 | 0.00 | 0.00 | 99 | 1015.8 |
| 20260509120034 | 11 | 42 | 0.0 | 3.2 | 0.00 | 0.00 | 0.00 | 99 | 1015.7 |
| 20260509115531 | 10 | 61 | 0.0 | 3.2 | 0.00 | 0.00 | 0.00 | 99 | 1015.5 |
| 20260509115029 | 10 | 12 | 0.0 | 3.2 | 0.00 | 0.00 | 0.00 | 99 | 1015.7 |
| 20260509114527 | 10 | 338 | 3.2 | 4.8 | 0.00 | 0.00 | 0.00 | 99 | 1015.6 |
| 20260509114025 | 10 | 328 | 0.0 | 3.2 | 0.00 | 0.00 | 0.00 | 99 | 1015.7 |
| 20260509113523 | 10 | 15 | 0.0 | 4.8 | 0.00 | 0.00 | 0.00 | 99 | 1015.6 |
| 20260509113021 | 10 | 342 | 0.0 | 3.2 | 0.00 | 0.00 | 0.00 | 99 | 1015.3 |
| 20260509112517 | 10 | 352 | 0.0 | 3.2 | 0.00 | 0.00 | 0.00 | 99 | 1015.5 |
| 20260509112014 | 10 | 310 | 0.0 | 3.2 | 0.00 | 0.00 | 0.00 | 99 | 1015.4 |
| 20260509111511 | 10 | 42 | 0.0 | 4.8 | 0.00 | 0.00 | 0.00 | 99 | 1015.3 |
| 20260509111008 | 10 | 68 | 3.2 | 3.2 | 0.00 | 0.00 | 0.00 | 99 | 1015.3 |
| 20260509110504 | 10 | 191 | 0.0 | 3.2 | 0.00 | 0.00 | 0.00 | 99 | 1015.4 |
| 20260509110002 | 10 | 185 | 0.0 | 3.2 | 0.00 | 0.00 | 0.00 | 99 | 1015.4 |
| 20260509105500 | 10 | 152 | 1.6 | 4.8 | 0.00 | 0.00 | 0.00 | 99 | 1015.4 |
| 20260509104957 | 10 | 195 | 0.0 | 3.2 | 0.00 | 0.00 | 0.00 | 99 | 1015.1 |
| 20260509104454 | 10 | 185 | 0.0 | 4.8 | 0.00 | 0.00 | 0.00 | 99 | 1015.1 |
| 20260509103951 | 10 | 110 | 0.0 | 4.8 | 0.00 | 0.00 | 0.00 | 99 | 1015.2 |
| 20260509103449 | 10 | 149 | 0.0 | 3.2 | 0.00 | 0.00 | 0.00 | 99 | 1015.0 |
| 20260509102947 | 10 | 53 | 0.0 | 3.2 | 0.00 | 0.00 | 0.00 | 99 | 1015.3 |
| 20260509102444 | 10 | 236 | 0.0 | 4.8 | 0.00 | 0.00 | 0.00 | 99 | 1015.3 |
| 20260509101940 | 10 | 189 | 3.2 | 4.8 | 0.00 | 0.00 | 0.00 | 99 | 1015.1 |
| 20260509101436 | 10 | 164 | 0.0 | 3.2 | 0.00 | 0.00 | 0.00 | 99 | 1015.1 |
| 20260509100934 | 10 | 168 | 0.0 | 3.2 | 0.00 | 0.00 | 0.00 | 99 | 1015.3 |
| 20260509100431 | 11 | 157 | 1.6 | 3.2 | 0.00 | 0.00 | 0.00 | 99 | 1015.0 |
| 20260509095927 | 11 | 295 | 0.0 | 3.2 | 0.00 | 0.00 | 0.00 | 99 | 1015.4 |
| 20260509095425 | 11 | 299 | 0.0 | 3.2 | 0.00 | 0.00 | 0.00 | 99 | 1015.1 |
| 20260509094922 | 11 | 24 | 0.0 | 1.6 | 0.00 | 0.00 | 0.00 | 99 | 1015.0 |
| 20260509094418 | 11 | 303 | 1.6 | 3.2 | 0.00 | 0.00 | 0.00 | 99 | 1015.1 |
| 20260509093916 | 11 | 321 | 0.0 | 1.6 | 0.00 | 0.00 | 0.00 | 99 | 1015.2 |
| 20260509093413 | 11 | 2 | 1.6 | 3.2 | 0.00 | 0.00 | 0.00 | 99 | 1015.1 |
| 20260509092912 | 11 | 11 | 0.0 | 3.2 | 0.00 | 0.00 | 0.00 | 99 | 1015.0 |
| 20260509092409 | 11 | 8 | 0.0 | 1.6 | 0.00 | 0.00 | 0.00 | 99 | 1015.1 |
| 20260509091907 | 11 | 313 | 0.0 | 3.2 | 0.00 | 0.00 | 0.00 | 99 | 1015.1 |
| 20260509091403 | 11 | 334 | 1.6 | 3.2 | 0.00 | 0.00 | 0.00 | 99 | 1015.3 |
| 20260509090901 | 11 | 4 | 0.0 | 3.2 | 0.00 | 0.00 | 0.00 | 99 | 1015.3 |
| 20260509090358 | 11 | 44 | 0.0 | 3.2 | 0.00 | 0.00 | 0.00 | 99 | 1015.3 |
| 20260509085856 | 11 | 22 | 0.0 | 3.2 | 0.00 | 0.00 | 0.00 | 99 | 1015.4 |
| 20260509085353 | 11 | 7 | 1.6 | 3.2 | 0.00 | 0.00 | 0.00 | 99 | 1015.4 |
| 20260509084849 | 11 | 315 | 0.0 | 1.6 | 0.00 | 0.00 | 0.00 | 99 | 1015.4 |
| 20260509084346 | 11 | 201 | 0.0 | 1.6 | 0.00 | 0.00 | 0.00 | 99 | 1015.5 |
| 20260509083844 | 12 | 60 | 0.0 | 3.2 | 0.00 | 0.00 | 0.00 | 99 | 1015.3 |